Regional Weather Roundup
Issued by NWS

Home | Current Version | Previous Version | Text Only | Print | Product List | Glossary Off
Versions: 1 2 3 4 5 6 7 8 9 10 11 12 13 14 15 16 17 18 19 20 21 22 23 24 25 26 27 28 29 30 31 32 33 34 35 36 37 38 39 40 41 42 43 44 45 46 47 48 49 50

000
ASUS45 KCYS 181610
RWRWY

WYOMING REGIONAL WEATHER ROUNDUP
NATIONAL WEATHER SERVICE CHEYENNE WY
1000 AM MDT SAT APR 18 2015

NOTE:  "FAIR" INDICATES FEW OR NO CLOUDS BELOW 12,000 FEET
WITH NO SIGNIFICANT WEATHER AND/OR OBSTRUCTIONS TO VISIBILITY.

WYZ001-181700-
YELLOWSTONE NATIONAL PARK

CITY           SKY/WX    TMP DP  RH WIND       PRES   REMARKS
LK YELLOWSTONE   N/A     33  23  66 VRB3      30.14F
W YELLOWSTONE  NOT AVBL

$$
WYZ002>013-054>058-071-098>099-181700-
NORTHERN WYOMING

CITY           SKY/WX    TMP DP  RH WIND       PRES   REMARKS
JACKSON        FAIR      45  25  45 E3        30.09F
CODY           FAIR      54  28  37 N8        30.04S
GREYBULL       FAIR      53  34  48 NW5       30.00F
WORLAND        FAIR      51  33  50 NE5       30.01S
SHERIDAN       FAIR      53  37  54 CALM      29.99S
BUFFALO        FAIR      55  32  41 VRB7      30.00S
GILLETTE       FAIR      48  42  80 S3        29.99S
HULETT         CLOUDY    52  41  66 N3        30.00S
NEWCASTLE      DRIZZLE   45  43  93 N6        29.99S

$$
WYZ014>020-022>026-101>103-181700-
CENTRAL WYOMING

CITY           SKY/WX    TMP DP  RH WIND       PRES   REMARKS
BIG PINEY      FAIR      49  26  41 NE9       30.04F
PINEDALE       FAIR      45  23  42 NW7       30.05S
DUBOIS         FAIR      46  14  27 W3        30.05F
LANDER         FAIR      47  32  56 CALM      30.01F
RIVERTON       FAIR      49  33  54 W7        30.02F
CASPER         CLOUDY    43  40  89 N6        29.97F
DOUGLAS        LGT RAIN  43  41  93 E10       29.96F FOG

$$
WYZ021-027>030-104>119-181700-
SOUTHERN WYOMING

CITY           SKY/WX    TMP DP  RH WIND       PRES   REMARKS
EVANSTON       FAIR      43  33  68 W5        30.08S
KEMMERER       FAIR      43  34  70 SW12      30.06F
FORT BRIDGER   SUNNY     46  36  66 W15       30.08F
ROCK SPRINGS   FAIR      42  36  79 W8        30.02F
DIXON          LGT SNOW  33  32  96 CALM      30.01S VSB 1
RAWLINS        CLOUDY    37  34  89 N13       29.97F WCI  29
SARATOGA       SNOW      32  32 100 NW3       29.97F VSB 1/4
LARAMIE        LGT SNOW  30  29  96 CALM      29.94S FOG
CHEYENNE       CLOUDY    36  32  85 N14       29.93S WCI  27
TORRINGTON     LGT RAIN  46  44  93 NW7       29.91F FOG
PINE BLUFFS    CLOUDY    41  36  81 NW7       29.94S

$$


USA.gov is the U.S. government's official web portal to all federal, state and local government web resources and services.